Location: Warszawa
(52.2500°N, 21.0000°E)
Time: 00:46:03
(UTC+02:00)

AO-27 - Pass Details

Date: 26 April 2024
Orbit: 783 x 797 km, 98.8° (Epoch: 26 May)

Event Time Altitude Azimuth Distance (km) Brightness Sun altitude
Rises 22:28:52 0° 217° (SW) 3,292 10.7 -18.6°
Reaches altitude 10° 22:32:17 10° 241° (WSW) 2,369 10.2 -18.9°
Maximum altitude 22:35:09 15° 274° (W) 2,062 10.2 -19.1°
Drops below altitude 10° 22:38:01 10° 308° (NW) 2,378 11.2 -19.3°
Sets 22:41:29 0° 332° (NNW) 3,313 12.6 -19.6°
